Location: Asheville, NC
(35.6000°N, 82.5500°W)
Time: 15:57:33
(UTC-05:00)

Tiangong 2 - Pass Details

Date: 04 January 2018
Orbit: 384 x 390 km, 42.8° (Epoch: 20 January)

Event Time Altitude Azimuth Distance (km) Brightness Sun altitude
Rises 18:46:35 0° 288° (WNW) 2,260 5.9 -15.1°
Reaches altitude 10° 18:48:50 10° 275° (W) 1,402 5.0 -15.6°
Maximum altitude 18:51:33 26° 216° (SW) 786 3.2 -16.1°
Drops below altitude 10° 18:54:15 10° 156° (SSE) 1,393 3.8 -16.6°
Enters shadow 18:54:58 - 151° (SSE) 1,653 4.1 -16.7°
